Vorticity
nan nan nan nan nan nan nan nan nan nan nan nan nan nan nan nan nan nan nan nan nan nan nan nan nan nan nan nan nan nan nan nan nan nan nan nan nan nan nan nan nan nan nan nan nan nan nan nan nan nan nan nan nan nan nan nan nan nan nan nan nan nan nan nan nan nan nan nan nan
nan 10 10 10 9 9 8 8 8 9 9 9 8 8 9 9 8 8 8 8 9 9 9 7 5 5 4 6 8 8 8 7 7 8 9 8 8 8 8 8 7 8 8 9 11 11 8 8 12 12 11 9 7 8 8 7 6 6 5 8 12 12 12 12 10 10 12 16 nan
nan 8 9 10 11 11 10 9 9 9 9 9 9 9 9 9 8 8 8 8 8 9 9 7 5 5 5 7 8 8 8 7 7 9 9 8 6 7 8 7 7 8 9 10 10 9 6 8 13 12 10 7 6 7 8 7 6 8 9 13 14 12 11 9 9 12 15 13 nan
nan 8 9 9 11 11 11 10 9 9 9 8 8 8 9 9 9 8 8 7 8 8 8 8 7 6 6 6 7 8 8 7 8 9 9 7 6 7 7 7 7 9 9 9 8 7 7 11 15 12 8 6 8 10 9 5 6 10 11 13 12 9 9 8 9 11 11 8 nan
nan 8 9 8 9 9 9 10 10 9 9 9 9 9 9 9 8 8 8 8 7 7 7 8 9 7 6 5 6 8 8 9 10 10 8 7 7 7 6 7 8 9 9 8 8 8 8 13 16 11 9 10 11 8 4 3 7 10 11 10 9 9 9 8 9 9 8 6 nan
nan 8 9 9 8 9 9 9 8 9 9 9 10 10 10 9 9 9 9 8 7 7 7 8 9 7 6 7 8 9 9 9 9 8 7 8 7 6 6 7 8 9 8 7 7 9 10 15 15 11 10 10 8 5 3 6 10 9 9 7 8 9 8 7 8 8 6 2 nan
nan 8 8 8 9 9 10 9 8 8 8 8 8 9 9 10 9 9 10 9 8 7 7 7 6 7 7 8 8 8 8 8 7 7 8 8 6 6 7 7 7 8 8 8 9 10 11 14 14 10 9 10 8 5 5 7 7 6 6 7 9 8 8 9 9 7 3 -0 nan
nan 7 7 8 8 9 9 10 10 9 9 8 7 7 8 8 8 9 9 9 8 8 8 7 5 6 7 8 8 8 7 8 8 8 8 7 6 7 7 8 8 8 8 9 9 9 11 14 13 9 9 10 7 4 3 3 5 6 6 9 9 8 7 8 6 3 2 4 nan
nan 7 7 7 7 7 7 8 9 10 10 9 7 7 7 7 8 9 9 9 8 8 8 6 5 6 8 8 9 8 8 8 7 8 7 7 7 7 8 8 7 8 9 9 8 8 13 14 11 8 7 7 3 2 1 4 6 7 10 13 9 6 4 3 2 2 4 7 nan
nan 7 7 7 7 7 7 7 7 8 9 8 7 7 7 7 8 9 9 8 7 7 7 6 6 7 8 9 9 9 8 8 7 7 7 7 7 7 8 8 6 7 8 8 9 10 14 13 8 5 4 3 2 3 4 6 7 9 12 11 5 2 3 3 4 6 9 9 nan
nan 8 8 7 7 7 8 7 7 7 7 7 7 7 7 7 8 8 9 8 8 7 8 7 7 8 9 9 8 8 8 8 7 6 7 7 7 7 7 7 6 7 7 8 11 12 13 9 5 3 4 4 7 9 8 7 8 8 10 5 3 4 6 6 8 11 12 9 nan
nan 8 8 8 8 8 8 8 7 7 7 7 7 8 8 7 7 8 8 8 9 9 8 7 7 8 9 8 7 7 7 6 6 7 7 7 7 7 7 7 7 8 8 10 12 12 9 5 3 3 5 8 12 9 6 5 8 9 8 6 6 7 8 8 9 10 9 6 nan
nan 8 7 8 8 9 9 9 8 7 7 7 8 8 8 7 7 7 8 9 10 9 8 7 8 9 9 7 7 7 6 6 7 8 7 7 7 7 8 8 8 9 10 12 10 8 6 4 4 5 7 10 9 5 3 6 9 9 9 8 8 8 7 8 9 8 6 6 nan
nan 7 8 8 9 9 9 9 8 7 7 7 8 8 8 7 7 7 8 8 9 9 9 8 9 8 7 6 6 6 6 7 7 7 7 8 7 7 8 8 7 9 10 10 7 6 6 5 6 7 8 9 7 5 6 8 9 9 9 9 8 8 8 9 8 8 8 8 nan
nan 7 8 8 9 10 9 9 9 8 8 7 8 8 9 8 7 7 7 8 9 9 9 8 8 7 6 6 7 7 7 8 8 8 8 8 8 7 8 7 8 8 8 7 7 7 7 7 9 9 9 8 8 8 8 9 9 9 8 8 8 8 9 8 9 9 9 9 nan
nan 7 8 9 9 10 10 10 9 8 8 7 7 8 9 9 8 7 7 8 9 9 7 7 8 8 7 7 8 8 9 9 8 9 9 8 7 7 7 7 8 8 7 7 8 8 8 9 10 9 9 9 9 9 9 9 9 9 8 8 8 9 8 8 9 9 9 9 nan
nan 7 8 8 9 9 9 9 9 8 7 7 8 8 9 9 8 7 7 8 8 7 5 7 8 8 7 7 8 9 10 9 8 8 8 7 6 7 7 8 8 8 8 8 8 8 8 9 9 9 9 9 10 9 9 10 10 9 9 9 9 9 9 9 10 10 10 10 nan
nan 7 8 8 8 8 8 8 9 8 7 7 8 8 8 8 7 7 7 7 7 6 6 7 9 8 7 7 8 9 8 8 7 7 6 6 6 7 7 8 8 8 8 8 8 8 8 9 9 9 9 9 9 9 9 10 9 9 9 10 10 10 10 10 10 11 10 9 nan
nan 7 7 7 7 7 7 8 8 8 8 8 8 7 7 7 7 7 7 7 6 6 7 8 8 8 7 7 8 8 8 8 6 6 6 7 7 8 7 7 8 8 8 9 9 9 10 10 9 9 8 8 8 8 8 9 9 9 9 11 11 11 10 10 11 10 9 9 nan
nan 7 7 7 7 7 7 8 8 8 8 8 7 7 7 7 7 7 7 7 7 7 8 8 8 7 7 7 7 8 9 9 7 7 8 8 7 7 7 8 8 9 9 10 10 10 10 10 9 8 8 8 8 8 9 10 10 9 11 12 11 10 9 10 10 9 9 10 nan
nan 7 7 7 7 7 8 8 8 8 8 8 8 8 8 8 8 8 8 8 8 8 8 8 8 7 7 8 8 9 10 9 7 8 8 8 8 8 9 9 9 10 9 10 10 10 10 9 8 8 8 9 9 9 10 10 9 9 11 10 8 7 8 10 10 10 11 11 nan
nan 7 7 7 7 7 8 8 8 8 8 8 8 8 8 8 8 8 8 8 8 8 8 9 9 8 8 8 8 8 9 7 7 7 8 8 8 8 9 9 9 9 9 11 12 11 11 10 8 8 9 10 9 9 9 9 9 10 10 8 7 8 9 11 11 11 11 12 nan
nan 7 7 8 8 8 8 8 8 8 9 8 8 8 8 9 8 8 9 9 9 8 9 10 9 8 8 8 8 8 8 7 7 7 7 7 7 8 9 10 10 11 13 15 14 12 11 10 9 9 10 9 9 10 10 10 11 11 9 8 9 10 11 12 11 11 11 12 nan
nan 7 8 8 8 8 8 8 8 9 9 8 8 8 8 9 9 9 9 9 8 8 9 9 8 8 9 9 9 9 8 7 7 8 7 7 8 8 10 12 12 14 17 15 8 4 3 5 6 8 10 10 10 11 11 11 10 9 9 10 11 12 12 11 11 11 11 12 nan
nan 7 7 7 8 8 8 8 8 8 9 8 8 8 8 9 9 9 9 8 8 8 8 8 9 10 10 10 10 10 10 10 9 9 9 9 8 9 11 13 14 16 15 6 -2 -3 -1 -0 1 4 7 9 9 10 10 10 10 10 10 10 11 12 12 12 12 12 13 14 nan
nan 8 8 8 8 8 8 9 8 9 9 9 8 8 8 9 9 8 8 8 8 8 9 10 11 11 11 10 9 9 10 10 9 9 9 8 8 9 11 12 13 13 9 -1 -4 -1 1 2 2 4 7 9 8 10 11 11 9 10 10 12 13 12 11 11 11 12 14 13 nan
nan 8 8 8 9 9 9 9 9 9 9 9 8 9 9 9 8 8 8 8 9 9 11 12 11 12 13 11 9 9 9 8 8 9 9 9 9 9 11 11 11 8 1 -6 -3 2 5 6 6 7 10 10 10 11 11 9 9 12 14 15 14 12 11 11 12 12 13 10 nan
nan 8 8 8 9 9 10 9 9 9 9 9 9 9 8 8 8 8 9 9 9 11 12 13 13 13 13 9 8 7 7 7 9 10 10 9 9 9 10 10 8 3 -3 -5 1 5 7 8 8 8 10 12 15 14 13 12 13 14 15 15 13 12 12 13 13 12 10 9 nan
nan 8 8 9 9 10 10 9 9 9 9 9 9 9 8 8 9 9 9 8 9 11 12 12 11 9 6 4 5 7 9 10 11 10 8 7 8 9 9 8 7 4 0 2 6 8 9 8 8 7 8 14 18 16 14 12 12 12 13 13 10 9 10 10 9 8 8 9 nan
nan 8 8 9 9 10 10 9 9 9 10 9 8 8 9 9 8 9 9 9 10 11 10 8 5 3 3 4 7 8 9 10 10 8 7 7 8 9 8 8 8 6 4 5 8 9 8 8 7 7 7 13 19 17 13 9 9 10 11 9 6 5 7 8 7 8 8 8 nan
nan 8 8 9 10 10 9 9 9 9 9 8 8 8 9 9 9 9 9 10 10 9 7 5 4 4 6 8 8 7 7 8 8 7 8 8 8 8 8 8 8 8 5 6 8 8 8 7 7 8 8 14 21 18 12 8 9 10 10 5 4 5 9 11 10 8 6 6 nan
nan 8 9 9 10 10 9 9 9 9 8 8 9 9 9 9 9 9 10 10 9 8 8 7 7 8 9 9 8 7 7 8 8 8 7 7 8 8 9 10 12 10 6 5 7 7 7 7 8 8 8 15 20 16 12 10 12 12 10 6 6 8 10 10 8 6 6 9 nan
nan 9 9 9 9 9 9 9 9 8 8 9 9 9 9 9 9 9 10 10 10 9 9 9 9 10 10 10 9 9 9 10 8 7 7 7 8 8 10 14 15 10 4 3 5 6 7 8 9 9 8 16 23 18 14 13 14 12 10 8 8 8 8 8 8 7 8 11 nan
nan 9 9 10 9 9 9 9 9 9 8 9 9 9 9 9 9 10 10 10 10 9 9 9 9 10 10 9 9 9 10 9 8 7 8 9 9 9 11 14 11 3 -1 2 5 7 8 9 10 9 10 20 25 18 12 12 12 9 6 6 7 8 8 10 10 10 10 12 nan
nan 9 9 9 9 9 9 9 9 8 9 9 9 9 9 9 9 10 10 10 9 9 9 9 9 9 9 8 9 8 8 7 7 7 8 9 9 10 10 10 4 -1 -0 4 7 9 10 10 10 10 15 24 24 16 11 12 12 9 7 8 8 8 9 11 13 12 12 13 nan
nan 9 9 9 9 9 8 8 9 9 9 9 9 9 9 9 10 10 10 10 10 9 9 8 8 8 8 9 9 9 8 8 8 9 9 9 9 10 10 9 5 3 4 7 9 9 10 10 10 12 19 24 19 13 11 14 13 10 9 10 10 10 12 14 14 13 13 12 nan
nan 9 9 9 9 8 8 8 8 8 8 9 9 9 9 10 11 11 11 11 10 9 9 8 8 8 8 9 9 8 8 8 9 9 9 9 10 10 10 9 8 7 8 8 9 10 10 11 11 14 20 21 14 11 12 14 11 9 10 12 12 12 15 17 15 14 12 9 nan
nan 9 9 9 9 8 8 8 8 8 8 9 9 9 9 10 11 11 11 10 9 9 9 8 8 8 8 9 9 8 8 8 9 9 10 10 10 10 9 9 10 10 8 7 8 10 11 11 11 14 18 17 13 14 14 12 9 9 10 12 12 12 15 16 14 13 9 6 nan
nan 9 9 9 9 8 8 8 8 9 9 10 9 9 9 10 11 10 10 10 9 8 8 8 7 8 8 9 10 9 9 9 10 10 10 10 9 8 9 10 11 9 7 6 8 10 11 11 11 12 17 19 17 16 14 10 8 9 10 11 11 11 14 14 12 11 9 5 nan
nan 9 9 9 9 8 8 8 9 10 10 9 9 9 10 10 10 9 10 9 8 9 9 9 8 8 8 10 10 10 9 9 10 10 10 9 9 9 11 12 11 9 8 9 10 11 11 11 10 12 19 21 17 15 12 9 8 9 10 10 10 12 12 12 12 11 9 8 nan
nan nan nan nan nan nan nan nan nan nan nan nan nan nan nan nan nan nan nan nan nan nan nan nan nan nan nan nan nan nan nan nan nan nan nan nan nan nan nan nan nan nan nan nan nan nan nan nan nan nan nan nan nan nan nan nan nan nan nan nan nan nan nan nan nan nan nan nan nan
CAPE
nan nan nan nan nan nan nan nan nan nan nan nan nan nan nan nan nan nan nan nan nan nan nan nan nan nan nan nan nan nan nan nan nan nan nan nan nan nan nan nan nan nan nan nan nan nan nan nan nan nan nan nan nan nan nan nan nan nan nan nan nan nan nan nan nan nan nan nan nan
nan nan nan nan nan nan nan nan nan nan nan nan nan nan nan nan nan nan nan nan nan nan nan nan nan nan nan nan nan nan nan nan nan nan nan nan nan nan nan nan nan nan nan nan nan nan nan nan nan nan nan nan nan nan nan nan nan nan nan nan nan nan nan nan nan nan nan nan nan
nan nan nan nan nan nan nan nan nan nan nan nan nan nan nan nan nan nan nan nan nan nan nan nan nan nan nan nan nan nan nan nan nan nan nan nan nan nan nan nan nan nan nan nan nan nan nan nan nan nan nan nan nan nan nan nan nan nan nan nan nan nan nan nan nan nan nan nan nan
nan nan nan nan nan nan nan nan nan nan nan nan nan nan nan nan nan nan nan nan nan nan nan nan nan nan nan nan nan nan nan nan nan nan nan nan nan nan nan nan nan nan nan nan nan nan nan nan nan nan nan nan nan nan nan nan nan nan nan nan nan nan nan nan nan nan nan nan nan
nan nan nan nan nan nan nan nan nan nan nan nan nan nan nan nan nan nan nan nan nan nan nan nan nan nan nan nan nan nan nan nan nan nan nan nan nan nan nan nan nan nan nan nan nan nan nan nan nan nan nan nan nan nan nan nan nan nan nan nan nan nan nan nan nan nan nan nan nan
nan nan nan nan nan nan nan nan nan nan nan nan nan nan nan nan nan nan nan nan nan nan nan nan nan nan nan nan nan nan nan nan nan nan nan nan nan nan nan nan nan nan nan nan nan nan nan nan nan nan nan nan nan nan nan nan nan nan nan nan nan nan nan nan nan nan nan nan nan
nan nan nan nan nan nan nan nan nan nan nan nan nan nan nan nan nan nan nan nan nan nan nan nan nan nan nan nan nan nan nan nan nan nan nan nan nan nan nan nan nan nan nan nan nan nan nan nan nan nan nan nan nan nan nan nan nan nan nan nan nan nan nan nan nan nan nan nan nan
nan nan nan nan nan nan nan nan nan nan nan nan nan nan nan nan nan nan nan nan nan nan nan nan nan nan nan nan nan nan nan nan nan nan nan nan nan nan nan nan nan nan nan nan nan nan nan nan nan nan nan nan nan nan nan nan nan nan nan nan nan nan nan nan nan nan nan nan nan
nan nan nan nan nan nan nan nan nan nan nan nan nan nan nan nan nan nan nan nan nan nan nan nan nan nan nan nan nan nan nan nan nan nan nan nan nan nan nan nan nan nan nan nan nan nan nan nan nan nan nan nan nan nan nan nan nan nan nan nan nan nan nan nan nan nan nan nan nan
nan nan nan nan nan nan nan nan nan nan nan nan nan nan nan nan nan nan nan nan nan nan nan nan nan nan nan nan nan nan nan nan nan nan nan nan nan nan nan nan nan nan nan nan nan nan nan nan nan nan nan nan nan nan nan nan nan nan nan nan nan nan nan nan nan nan nan nan nan
nan nan nan nan nan nan nan nan nan nan nan nan nan nan nan nan nan nan nan nan nan nan nan nan nan nan nan nan nan nan nan nan nan nan nan nan nan nan nan nan nan nan nan nan nan nan nan nan nan nan nan nan nan nan nan nan nan nan nan nan nan nan nan nan nan nan nan nan nan
nan nan nan nan nan nan nan nan nan nan nan nan nan nan nan nan nan nan nan nan nan nan nan nan nan nan nan nan nan nan nan nan nan nan nan nan nan nan nan nan nan nan nan nan nan nan nan nan nan nan nan nan nan nan nan nan nan nan nan nan nan nan nan nan nan nan nan nan nan
nan nan nan nan nan nan nan nan nan nan nan nan nan nan nan nan nan nan nan nan nan nan nan nan nan nan nan nan nan nan nan nan nan nan nan nan nan nan nan nan nan nan nan nan nan nan nan nan nan nan nan nan nan nan nan nan nan nan nan nan nan nan nan nan nan nan nan nan nan
nan nan nan nan nan nan nan nan nan nan nan nan nan nan nan nan nan nan nan nan nan nan nan nan nan nan nan nan nan nan nan nan nan nan nan nan nan nan nan nan nan nan nan nan nan nan nan nan nan nan nan nan nan nan nan nan nan nan nan nan nan nan nan nan nan nan nan nan nan
nan nan nan nan nan nan nan nan nan nan nan nan nan nan nan nan nan nan nan nan nan nan nan nan nan nan nan nan nan nan nan nan nan nan nan nan nan nan nan nan nan nan nan nan nan nan nan nan nan nan nan nan nan nan nan nan nan nan nan nan nan nan nan nan nan nan nan nan nan
nan nan nan nan nan nan nan nan nan nan nan nan nan nan nan nan nan nan nan nan nan nan nan nan nan nan nan nan nan nan nan nan nan nan nan nan nan nan nan nan nan nan nan nan nan nan nan nan nan nan nan nan nan nan nan nan nan nan nan nan nan nan nan nan nan nan nan nan nan
nan nan nan nan nan nan nan nan nan nan nan nan nan nan nan nan nan nan nan nan nan nan nan nan nan nan nan nan nan nan nan nan nan nan nan nan nan nan nan nan nan nan nan nan nan nan nan nan nan nan nan nan nan nan nan nan nan nan nan nan nan nan nan nan nan nan nan nan nan
nan nan nan nan nan nan nan nan nan nan nan nan nan nan nan nan nan nan nan nan nan nan nan nan nan nan nan nan nan nan nan nan nan nan nan nan nan nan nan nan nan nan nan nan nan nan nan nan nan nan nan nan nan nan nan nan nan nan nan nan nan nan nan nan nan nan nan nan nan
nan nan nan nan nan nan nan nan nan nan nan nan nan nan nan nan nan nan nan nan nan nan nan nan nan nan nan nan nan nan nan nan nan nan nan nan nan nan nan nan nan nan nan nan nan nan nan nan nan nan nan nan nan nan nan nan nan nan nan nan nan nan nan nan nan nan nan nan nan
nan nan nan nan nan nan nan nan nan nan nan nan nan nan nan nan nan nan nan nan nan nan nan nan nan nan nan nan nan nan nan nan nan nan nan nan nan nan nan nan nan nan nan nan nan nan nan nan nan nan nan nan nan nan nan nan nan nan nan nan nan nan nan nan nan nan nan nan nan
nan nan nan nan nan nan nan nan nan nan nan nan nan nan nan nan nan nan nan nan nan nan nan nan nan nan nan nan nan nan nan nan nan nan nan nan nan nan nan nan nan nan nan nan nan nan nan nan nan nan nan nan nan nan nan nan nan nan nan nan nan nan nan nan nan nan nan nan nan
nan nan nan nan nan nan nan nan nan nan nan nan nan nan nan nan nan nan nan nan nan nan nan nan nan nan nan nan nan nan nan nan nan nan nan nan nan nan nan nan nan nan nan nan nan nan nan nan nan nan nan nan nan nan nan nan nan nan nan nan nan nan nan nan nan nan nan nan nan
nan nan nan nan nan nan nan nan nan nan nan nan nan nan nan nan nan nan nan nan nan nan nan nan nan nan nan nan nan nan nan nan nan nan nan nan nan nan nan nan nan nan nan nan nan nan nan nan nan nan nan nan nan nan nan nan nan nan nan nan nan nan nan nan nan nan nan nan nan
nan nan nan nan nan nan nan nan nan nan nan nan nan nan nan nan nan nan nan nan nan nan nan nan nan nan nan nan nan nan nan nan nan nan nan nan nan nan nan nan nan nan nan nan nan nan nan nan nan nan nan nan nan nan nan nan nan nan nan nan nan nan nan nan nan nan nan nan nan
nan nan nan nan nan nan nan nan nan nan nan nan nan nan nan nan nan nan nan nan nan nan nan nan nan nan nan nan nan nan nan nan nan nan nan nan nan nan nan nan nan nan nan nan nan nan nan nan nan nan nan nan nan nan nan nan nan nan nan nan nan nan nan nan nan nan nan nan nan
nan nan nan nan nan nan nan nan nan nan nan nan nan nan nan nan nan nan nan nan nan nan nan nan nan nan nan nan nan nan nan nan nan nan nan nan nan nan nan nan nan nan nan nan nan nan nan nan nan nan nan nan nan nan nan nan nan nan nan nan nan nan nan nan nan nan nan nan nan
nan nan nan nan nan nan nan nan nan nan nan nan nan nan nan nan nan nan nan nan nan nan nan nan nan nan nan nan nan nan nan nan nan nan nan nan nan nan nan nan nan nan nan nan nan nan nan nan nan nan 0 nan nan nan nan nan nan nan nan nan nan nan nan nan nan nan nan nan nan
nan nan nan nan nan nan nan nan nan nan nan nan nan nan nan nan nan nan nan nan nan nan nan nan nan nan nan nan nan nan nan nan nan nan nan nan nan nan nan nan nan nan nan nan nan nan nan nan 0 0 1 0 nan 0 0 nan nan nan nan nan nan nan nan 0 0 0 nan nan nan
nan nan nan nan nan nan nan nan nan nan nan nan nan nan nan nan nan nan nan nan nan nan nan nan nan nan nan nan nan nan nan nan nan nan nan nan nan nan nan nan nan nan nan nan nan nan nan nan 0 0 3 5 0 nan nan nan nan nan nan nan nan 0 0 1 1 1 0 nan nan
nan nan nan nan nan nan nan nan nan nan nan nan nan nan nan nan nan nan nan nan nan nan nan nan nan nan nan nan nan nan nan nan nan nan nan nan nan nan nan nan nan nan nan nan nan nan nan nan 0 0 3 8 3 0 0 0 0 0 0 0 0 2 2 1 1 1 0 nan nan
nan nan nan nan nan nan nan nan nan nan nan nan nan nan nan nan nan nan nan nan nan nan nan nan nan nan nan nan nan nan nan nan nan nan nan nan nan nan nan nan nan nan nan nan nan nan nan 0 1 1 4 10 3 1 1 1 0 0 0 0 2 2 2 2 1 1 0 0 0
nan nan nan nan nan nan nan nan nan nan nan nan nan nan nan nan nan nan nan nan nan nan nan nan nan nan nan nan nan nan nan nan nan nan nan nan nan nan nan nan nan nan nan nan nan nan nan 0 2 2 5 11 6 1 1 0 0 0 0 2 2 2 2 1 1 1 0 0 1
nan nan nan nan nan nan nan nan nan nan nan nan nan nan nan nan nan nan nan nan nan nan nan nan nan nan nan nan nan nan nan nan nan nan nan nan nan nan nan nan nan nan nan nan nan nan nan 0 2 2 6 14 7 1 1 0 0 2 2 2 2 3 3 3 1 1 1 1 4
nan nan nan nan nan nan nan nan nan nan nan nan nan nan nan nan nan nan nan nan nan nan nan nan nan nan nan nan nan nan nan nan nan nan nan nan nan nan nan nan nan nan nan nan nan nan nan 1 3 3 9 17 6 1 1 1 2 2 2 2 2 3 3 3 2 2 3 3 5
nan nan nan nan nan nan nan nan nan nan nan nan nan nan nan nan nan nan nan nan nan nan nan nan nan nan nan nan nan nan nan nan nan nan nan nan nan nan nan nan nan nan nan nan nan nan 0 2 5 5 12 15 3 1 1 2 2 2 2 3 3 3 3 3 5 5 6 6 10
nan nan nan nan nan nan nan nan nan nan nan nan nan nan nan nan nan nan nan nan nan nan nan nan nan nan nan nan nan nan nan nan nan nan nan nan nan nan nan nan nan nan nan nan nan nan 0 3 8 8 15 12 3 3 3 3 3 3 3 3 4 3 3 4 6 6 8 9 11
nan nan nan nan nan nan nan nan nan nan nan nan nan nan nan nan nan nan nan nan nan nan nan nan nan nan nan nan nan nan nan nan nan nan nan nan nan nan nan nan nan nan nan nan nan nan 1 6 13 13 17 8 3 2 2 2 3 4 4 5 4 4 4 4 6 6 10 11 11
nan nan nan nan nan nan nan nan nan nan nan nan nan nan nan nan nan nan nan nan nan nan nan nan nan nan nan nan nan nan nan nan nan nan nan nan nan nan nan nan nan nan nan nan 0 0 3 9 16 16 19 4 3 3 3 3 4 5 5 5 6 6 6 8 6 6 9 12 25
nan nan nan nan nan nan nan nan nan nan nan nan nan nan nan nan nan nan nan nan nan nan nan nan nan nan nan nan nan nan nan nan nan nan nan nan nan nan nan nan nan nan nan nan 0 0 5 12 19 19 25 12 4 3 3 5 7 6 6 6 6 6 6 8 5 5 11 22 66
nan nan nan nan nan nan nan nan nan nan nan nan nan nan nan nan nan nan nan nan nan nan nan nan nan nan nan nan nan nan nan nan nan nan nan nan nan nan nan nan nan nan nan nan 1 1 6 15 24 24 33 16 5 3 3 6 7 9 9 9 6 7 7 6 8 8 17 36 90
nan nan nan nan nan nan nan nan nan nan nan nan nan nan nan nan nan nan nan nan nan nan nan nan nan nan nan nan nan nan nan nan nan nan nan nan nan nan nan nan nan nan nan nan 2 2 8 18 28 28 38 13 6 7 7 8 12 9 9 7 8 4 4 7 16 16 27 39 34